Regional Weather Roundup
Issued by NWS

Home | Current Version | Previous Version | Graphics & Text | Print | Product List | Glossary On
Versions: 1 2 3 4 5 6 7 8 9 10 11 12 13 14 15 16 17 18 19 20 21 22 23 24 25 26 27 28 29 30 31 32 33 34 35 36 37 38 39 40 41 42 43 44 45 46 47 48 49 50
000
ASUS43 KLSX 171657
RWRMO

WEATHER SUMMARY FOR MISSOURI
NATIONAL WEATHER SERVICE SPRINGFIELD MO
1100 AM CST FRI NOV 17 2017

NOTE: "FAIR" INDICATES FEW OR NO CLOUDS BELOW 12,000 FEET WITH NO
       SIGNIFICANT WEATHER AND/OR OBSTRUCTIONS TO VISIBILITY.
       CURRENT SKY AND/OR WEATHER CONDITIONS ARE NOT AVAILABLE FOR
       CHILLICOTHE AND FARMINGTON.

MOZ001>031-035>038-043-044-053-054-171800-
...NORTHERN AND WESTERN MISSOURI...

CITY           SKY/WX    TMP DP  RH WIND       PRES   REMARKS
KANSAS CTY INT CLOUDY    58  56  93 S17       29.66F FOG
LEE`S SUMMIT   CLOUDY    57  56  96 S17       29.69F FOG
ST JOSEPH      CLOUDY    57  54  89 S12       29.65F FOG
CHILLICOTHE      N/A     55  49  80 SE9G16    29.72F

$$
MOZ066>068-077>081-088>096-101>105-171800-
...SOUTHWEST MISSOURI...

CITY           SKY/WX    TMP DP  RH WIND       PRES   REMARKS
SPRINGFIELD    CLOUDY    58  52  80 S22G31    29.80F
JOPLIN         CLOUDY    65  60  84 S18G32    29.76F
BRANSON        CLOUDY    59  54  82 SE13      29.88F

$$
MOZ032>034-039>042-045>050-055>058-069>072-171800-
...CENTRAL MISSOURI...

CITY           SKY/WX    TMP DP  RH WIND       PRES   REMARKS
COLUMBIA       NOT AVBL
JEFFERSON CITY CLOUDY    58  47  66 SE16      29.83F
ROLLA          CLOUDY    54  47  77 S16G26    29.87F
SEDALIA        CLOUDY    60  55  83 S16       29.77F
WHITEMAN AFB   DRIZZLE   58  54  86 S15       29.69F
WARRENSBURG    CLOUDY    55  54  94 SE17      29.72F FOG

$$
MOZ051-052-059>065-171800-
...EAST CENTRAL MISSOURI...

CITY           SKY/WX    TMP DP  RH WIND       PRES   REMARKS
ST LOUIS INTL  CLOUDY    45  38  76 SE13G24   29.95F

$$
MOZ072>076-082>087-097>100-106>115-171800-
...SOUTH CENTRAL AND SOUTHEAST MISSOURI...

CITY           SKY/WX    TMP DP  RH WIND       PRES   REMARKS
CAPE GIRARDEAU CLOUDY    46  40  79 SE8       30.04F
POPLAR BLUFF   CLOUDY    49  42  77 SE7       30.03F
WEST PLAINS    CLOUDY    55  47  74 S17       29.94F

$$



USA.gov is the U.S. government's official web portal to all federal, state and local government web resources and services.